Regional Weather Roundup
Issued by NWS

Home | Current Version | Previous Version | Graphics & Text | Print | Product List | Glossary On
Versions: 1 2 3 4 5 6 7 8 9 10 11 12 13 14 15 16 17 18 19 20 21 22 23 24 25 26 27 28 29 30 31 32 33 34 35 36 37 38 39 40 41 42 43 44 45 46 47 48 49 50
000
ASUS45 KSLC 231510
RWRUT

UTAH REGIONAL WEATHER ROUNDUP
NATIONAL WEATHER SERVICE SALT LAKE CITY UT
900 AM MDT SAT SEP 23 2017

UTZ001>011-023>025-231600-

NORTHERN UTAH

CITY           SKY/WX    TMP DP  RH WIND       PRES   REMARKS
BRIGHAM CITY   SUNNY     39  34  81 CALM      29.97S
HILL AFB       SUNNY     41  32  70 E7        29.95S
LOGAN          CLOUDY    38  34  85 CALM      30.00F
OGDEN          SUNNY     40  36  86 SW3       29.95S
SALT LAKE CITY MOSUNNY   45  38  76 CALM      29.96R
TOOELE VALLEY  PTSUNNY   43  37  81 CALM      29.97S
WENDOVER       MOSUNNY   45  35  68 CALM      29.99S
HEBER CITY     CLOUDY    39  32  75 CALM      29.95S
WEST JORDAN    SUNNY     41  41 100 NW6       29.96S

$$

UTZ011>015-024>027-231600-

CENTRAL/NORTHEAST UTAH

CITY           SKY/WX    TMP DP  RH WIND       PRES   REMARKS
PROVO AIRPORT  MOSUNNY   42  38  85 NE3       29.95S
MOAB/CANYONLAN PTSUNNY   47  30  51 CALM      29.82R
DELTA          PTSUNNY   37  36  93 NE3       29.96R
PRICE          SUNNY     50  26  39 MISG      29.86S
RICHFIELD      CLOUDY    43  39  87 N6        29.95S
ROOSEVELT      CLOUDY    50  36  57 SW5       29.92F
VERNAL         CLOUDY    49  35  58 NE6       29.91S

$$

UTZ013>016-019>022-027-231600-

SOUTHERN UTAH

CITY           SKY/WX    TMP DP  RH WIND       PRES   REMARKS
BRYCE CANYON   MOSUNNY   36  31  82 NE8       29.93S WCI  30
CEDAR CITY     CLOUDY    38  37  97 N6        29.94R WCI  33
MILFORD        CLOUDY    41  37  86 N9        29.95R
ST GEORGE      MOSUNNY   54  36  50 SE5       29.86R
HANKSVILLE     SUNNY     50  32  50 CALM      29.85S
KANAB          SUNNY     48  32  53 N8        29.90S
BLANDING         N/A     52  47  82 E10       29.94F

$$

REGIONAL REPORTS     COLORADO/ARIZONA

CITY           SKY/WX    TMP DP  RH WIND       PRES   REMARKS
CRAIG, CO      CLOUDY    48  41  76 S17G28    29.95S
GRAND JUNCTION CLOUDY    54  47  77 SE24G30   29.87R
RIFLE, CO      RAIN      49  48  97 S3        29.95R FOG
MONTROSE, CO   LGT RAIN  49  49 100 NW6       29.95S
CORTEZ, CO     HVY RAIN  49  49 100 E5        29.94R FOG
PAGE, AZ       SUNNY     55  22  27 CALM      29.82R
GRAND CANYON   SUNNY     41  18  39 CALM      29.90S
KINGMAN, AZ    SUNNY     55  32  41 E7        29.84R
FLAGSTAFF, AZ  SUNNY     47  27  45 SW9       29.91R

$$

REGIONAL REPORTS    NEVADA/IDAHO/WYOMING

CITY           SKY/WX    TMP DP  RH WIND       PRES   REMARKS
LAS VEGAS, NV  MOSUNNY   63  31  30 N12G22    29.83R
ELY, NY        CLOUDY    30  30 100 NE14      30.00R WCI  19
ELKO, NV       FOG       32  30  92 CALM      30.04R VSB 1/4
POCATELLO, ID  PTSUNNY   38  36  92 CALM      30.05R
BURLEY, ID     CLOUDY    38  35  89 CALM      30.04R
FORT BRIDGER,  FOG       37  37 100 NE6       30.00F VSB 0   WCI  33
EVANSTON, WY   CLOUDY    33  32  96 N8        29.97S WCI  26
ROCK SPRINGS,  CLOUDY    37  35  92 NW5       29.98F WCI  33
KEMMERER, WY     N/A     32  32 100 N9        30.00  WCI  24

$$



USA.gov is the U.S. government's official web portal to all federal, state and local government web resources and services.